Ukiah, CA

5:33 PM PDT on September 19, 2017 (GMT -0700)
Ukiah Municipal

Weather History for KUKI - September, 2012

Change the Weather History Date:

Thursday, September 20, 2012

  Actual Average Record
Temperature  
Mean Temperature 65 °F 68 °F  
Max Temperature 88 °F 87 °F 106 °F (1919)
Min Temperature 42 °F 49 °F 38 °F (1915)
Degree Days  
Heating Degree Days 0 1  
Month to date heating degree days 10  
Since 1 July heating degree days 13  
Cooling Degree Days 0 4  
Month to date cooling degree days 101  
Year to date cooling degree days 784  
Growing Degree Days 14 (Base 50)    
Moisture  
Dew Point 42 °F    
Average Humidity 55    
Maximum Humidity 89    
Minimum Humidity 20    
Precipitation  
Precipitation 0.00 in 0.01 in 0.50 in (1973)
Month to date precipitation 0.00 0.28  
Year to date precipitation 18.92 23.80  
Since 1 July precipitation T  
Snow  
Snow 0.00 in - - ()
Month to date snowfall 0.0  
Since 1 July snowfall 0.0  
Since 1 September snowfall 0.0  
Snow Depth -    
Sea Level Pressure  
Sea Level Pressure 30.03 in    
Wind  
Wind Speed 1 mph (North)    
Max Wind Speed 10 mph    
Max Gust Speed 14 mph    
Visibility 10 miles    
Events      
T = Trace of Precipitation, MM = Missing Value Source: NWS Daily Summary

Daily Weather History Graph

Daily Weather History Graph

Search for Another Location

Airport or City:

Trip Planner

Search our weather history database for the weather conditions in past years. The results will help you decide how hot, cold, wet, or windy it might be!

Date:

Astronomy

Sep. 20, 2012 Rise Set
Actual Time 6:59 AM PDT 7:12 PM PDT
Civil Twilight 6:32 AM PDT 7:38 PM PDT
Nautical Twilight 6:01 AM PDT 8:10 PM PDT
Astronomical Twilight 5:29 AM PDT 8:41 PM PDT
Moon 12:20 PM PDT 10:21 PM PDT
Length of Visible Light 13h 06m
Length of Day
12h 12m
Waxing Crescent, 28% of the Moon is Illuminated
Sep 20
Waxing Crescent
Sep 22
First Quarter
Sep 29
Full
Oct 8
Last Quarter
Oct 15
New

Hourly Weather History & Observations

Time (PDT) Temp. Dew Point Humidity Pressure Visibility Wind Dir Wind Speed Gust Speed Precip Events Conditions
12:56 AM 52.0 °F 42.1 °F 69% 30.06 in 10.0 mi Calm Calm - N/A   Clear
1:56 AM 48.0 °F 43.0 °F 83% 30.07 in 10.0 mi Calm Calm - N/A   Clear
2:56 AM 48.0 °F 43.0 °F 83% 30.07 in 10.0 mi Calm Calm - N/A   Clear
3:56 AM 46.9 °F 42.1 °F 83% 30.06 in 10.0 mi Calm Calm - N/A   Clear
4:56 AM 46.0 °F 42.1 °F 86% 30.05 in 10.0 mi Calm Calm - N/A   Clear
5:56 AM 42.8 °F 39.2 °F 87% 30.07 in 10.0 mi Calm Calm - N/A   Clear
6:56 AM 43.0 °F 39.0 °F 86% 30.06 in 10.0 mi Calm Calm - N/A   Clear
7:56 AM 45.0 °F 41.0 °F 86% 30.08 in 10.0 mi Calm Calm - N/A   Clear
8:56 AM 53.1 °F 44.1 °F 71% 30.08 in 10.0 mi Calm Calm - N/A   Clear
9:56 AM 59.0 °F 46.0 °F 62% 30.08 in 10.0 mi Calm Calm - N/A   Clear
10:56 AM 64.9 °F 46.0 °F 50% 30.06 in 10.0 mi Calm Calm - N/A   Clear
11:56 AM 73.0 °F 42.1 °F 33% 30.04 in 10.0 mi Calm Calm - N/A   Clear
12:56 PM 79.0 °F 41.0 °F 26% 30.01 in 10.0 mi NE 3.5 mph - N/A   Clear
1:56 PM 82.9 °F 41.0 °F 23% 29.99 in 10.0 mi Calm Calm - N/A   Clear
2:56 PM 87.1 °F 41.0 °F 20% 29.97 in 10.0 mi Variable 4.6 mph - N/A   Clear
3:56 PM 86.0 °F 43.0 °F 22% 29.96 in 10.0 mi North 6.9 mph - N/A   Clear
4:56 PM 80.1 °F 44.1 °F 28% 29.96 in 10.0 mi NNE 8.1 mph - N/A   Clear
5:56 PM 73.9 °F 42.1 °F 32% 29.97 in 10.0 mi North 8.1 mph - N/A   Clear
6:56 PM 68.0 °F 39.9 °F 36% 29.99 in 10.0 mi North 8.1 mph - N/A   Clear
7:56 PM 63.0 °F 43.0 °F 48% 30.02 in 10.0 mi North 9.2 mph - N/A   Clear
8:56 PM 60.1 °F 44.1 °F 55% 30.03 in 10.0 mi Calm Calm - N/A   Clear
9:56 PM 57.0 °F 43.0 °F 59% 30.03 in 10.0 mi Calm Calm - N/A   Clear
10:56 PM 55.0 °F 42.1 °F 62% 30.03 in 10.0 mi West 3.5 mph - N/A   Clear
11:56 PM 51.1 °F 43.0 °F 74% 30.03 in 10.0 mi Calm Calm - N/A   Clear